TimeCDT,TemperatureF,Dew PointF,Humidity,Sea Level PressureIn,VisibilityMPH,Wind Direction,Wind SpeedMPH,Gust SpeedMPH,PrecipitationIn,Events,Conditions,WindDirDegrees,DateUTC
12:54 AM,64.0,57.9,80,29.90,10.0,Calm,Calm,-,N/A,,Clear,0,2012-06-05 05:54:00
1:54 AM,63.0,57.0,81,29.90,10.0,East,4.6,-,N/A,,Clear,90,2012-06-05 06:54:00
2:54 AM,57.9,55.0,90,29.90,10.0,East,3.5,-,N/A,,Clear,90,2012-06-05 07:54:00
3:54 AM,57.9,55.0,90,29.91,10.0,East,3.5,-,N/A,,Clear,80,2012-06-05 08:54:00
4:54 AM,55.9,52.0,87,29.92,10.0,ENE,3.5,-,N/A,,Clear,70,2012-06-05 09:54:00
5:54 AM,60.1,51.1,72,29.93,10.0,East,4.6,-,N/A,,Clear,90,2012-06-05 10:54:00
6:54 AM,60.1,52.0,75,29.96,10.0,East,3.5,-,N/A,,Clear,90,2012-06-05 11:54:00
7:54 AM,64.4,48.2,56,29.99,10.0,East,5.8,-,N/A,,Clear,90,2012-06-05 12:54:00
8:54 AM,68.0,46.9,47,29.98,10.0,ENE,6.9,-,N/A,,Clear,60,2012-06-05 13:54:00
9:54 AM,72.0,46.0,40,29.98,10.0,NE,4.6,-,N/A,,Clear,40,2012-06-05 14:54:00
10:54 AM,75.0,46.9,37,29.98,10.0,East,3.5,-,N/A,,Scattered Clouds,80,2012-06-05 15:54:00
11:54 AM,77.0,45.0,32,29.97,10.0,NE,6.9,-,N/A,,Clear,40,2012-06-05 16:54:00
12:54 PM,79.0,48.0,34,29.96,10.0,NNE,11.5,-,N/A,,Clear,20,2012-06-05 17:54:00
1:54 PM,80.1,48.0,32,29.95,10.0,Variable,4.6,-,N/A,,Clear,0,2012-06-05 18:54:00
2:54 PM,81.0,48.9,33,29.94,10.0,NE,12.7,19.6,N/A,,Clear,50,2012-06-05 19:54:00
3:54 PM,82.0,51.1,34,29.92,10.0,NE,10.4,-,N/A,,Clear,40,2012-06-05 20:54:00
4:54 PM,81.0,48.9,33,29.91,10.0,ENE,9.2,-,N/A,,Clear,70,2012-06-05 21:54:00
5:54 PM,80.1,50.0,35,29.90,10.0,NE,11.5,-,N/A,,Clear,40,2012-06-05 22:54:00
6:54 PM,78.1,50.0,37,29.90,10.0,NE,10.4,-,N/A,,Clear,50,2012-06-05 23:54:00
7:54 PM,72.0,51.1,48,29.92,10.0,NE,5.8,-,N/A,,Clear,50,2012-06-06 00:54:00
8:54 PM,73.0,51.1,46,29.92,10.0,East,4.6,-,N/A,,Overcast,80,2012-06-06 01:54:00
9:54 PM,71.1,51.1,49,29.94,10.0,East,5.8,-,N/A,,Mostly Cloudy,80,2012-06-06 02:54:00
10:54 PM,69.1,51.1,53,29.96,10.0,East,6.9,-,N/A,,Mostly Cloudy,90,2012-06-06 03:54:00
11:54 PM,66.9,51.1,57,29.97,10.0,East,6.9,-,N/A,,Overcast,100,2012-06-06 04:54:00